Location: Bemmer
(51.5498°N, 5.6249°E)
Time: 01:22:02
(UTC+00:00)

SL-4 R/B - Pass Details

Date: 03 March 2021
Orbit: 428 x 663 km, 51.6° (Epoch: 13 April)

Event Time Altitude Azimuth Distance (km) Brightness Sun altitude
Rises 18:10:34 0° 275° (W) 2,518 7.8 -8.4°
Reaches altitude 10° 18:12:47 10° 275° (W) 1,608 6.1 -8.7°
Maximum altitude 18:16:23 90° 184° (S) 449 1.6 -9.3°
Enters shadow 18:19:15 14° 97° (E) 1,304 3.3 -9.8°
